PAYLOAD B

导读

PAYLOAD B是中国于2021年8月24日发射的卫星,由长征二号丙运载火箭以“一箭三星”方式送入预定轨道。本次发射中长二丙火箭首次应用4.2米直径整流罩,为卫星提供更大可用空间,同时采用新型中心承力筒实现多星发射,降低了结构重量与分离风险,是中国低成本航天发射技术的重要实践。

Basic Information
目录编号:
49113
目录名称:
PAYLOAD B
国际标识:
2021-076B
轨道中心:
EARTH
卫星名称:
PAYLOAD B
卫星全名:
--
卫星状态:
在轨 (已飞行1844 天)
发射日期:
2021-08-24 UTC
国别 :
中国 (CN)
星等 :
--
This satellite is enrolled in the Space Conjunction Data Service (SCDS) and the current flight risk assessment level is: No High Risk
Orbit Information
数据来源 国际轨道数据 AOE轨道数据
星历时间 2026-09-11T07:18:41+0800
9小时前
查看轨道信息
2026-09-10T08:00:00+0800
1天前
查看轨道信息
半长轴 7239.272km 7239.27km
偏心率 0.0017591 0.0018148
轨道倾角 86.400° 86.402°
近地点辐角 302.138° 306.389°
升交点赤经 48.623° 49.014°
平近点角 57.809° 168.024°
近地点 848.4km 847.995km
远地点 873.87km 874.271km
周期 102.165分钟 102.165分钟
每日圈数 14.094849 14.094856
Detailed Information
使用方式:
暂无
2D Orbit Map
3D Orbit Map
Orbit Altitude Analysis Chart
Orbit Inclination Analysis Chart
Orbit Comprehensive Analysis Chart
View Comprehensive Chart
Miss Distance Evolution Trend with All Objects
Collision Probability Evolution Trend with All Objects